Satellite-Ground Cal/Val Site Overpasses Predictions

Prediction of Satellite NPP Overpassing Cal/Val Site: Antarctic Dome C

Ground Cal/Val Site Location: Latitude: -75.10, Longitude: 123.35; Satellite-Ground Site NADIR distance within 100 km.

Table of predicted overpasses for the next 14.0 days since TLE Epoch: 10/26/2024
Interval Starting Time Ending Time Minimum Distance Time Minimum Distance (km)
1 10/26/2024 14:48:06 10/26/2024 14:48:35 10/26/2024 14:48:21 16.72
2 10/28/2024 07:30:56 10/28/2024 07:31:26 10/28/2024 07:31:11 2.43
3 10/31/2024 14:54:24 10/31/2024 14:54:53 10/31/2024 14:54:39 20.23
4 11/01/2024 14:35:43 11/01/2024 14:35:57 11/01/2024 14:35:50 86.82
5 11/02/2024 07:37:15 11/02/2024 07:37:42 11/02/2024 07:37:28 33.93
6 11/03/2024 07:18:30 11/03/2024 07:18:49 11/03/2024 07:18:39 76.25
7 11/05/2024 15:00:44 11/05/2024 15:01:08 11/05/2024 15:00:56 57.18
8 11/06/2024 14:41:54 11/06/2024 14:42:19 11/06/2024 14:42:06 51.97
9 11/07/2024 07:43:35 11/07/2024 07:43:56 11/07/2024 07:43:45 69.19
